Location: Ames
(42.0350°N, 93.6200°W)
Time: 16:59:58
(UTC-05:00)

ISS - All Passes

Search period start: 20 September 2014 00:00
Search period end: 30 September 2014 00:00
Orbit: 413 x 417 km, 51.6° (Epoch: 20 September)

Date Brightness Start Highest point End Pass type
(mag) Time Alt. Az. Time Alt. Az. Time Alt. Az.
20 Sep - 02:13:11 10° S 02:15:28 17° SE 02:17:45 10° E night (unlit)
20 Sep - 03:48:36 10° WSW 03:51:53 58° NNW 03:55:11 10° NE visible
20 Sep - 05:26:42 10° WNW 05:29:07 18° NNW 05:31:33 10° NE visible
20 Sep - 07:04:29 10° NW 07:06:46 17° N 07:09:03 10° NE daylight
20 Sep - 08:40:55 10° NW 08:44:07 43° NNE 08:47:19 10° ESE daylight
20 Sep - 10:17:55 10° WNW 10:20:41 25° SW 10:23:28 10° SSE daylight
21 Sep - 02:59:41 10° SW 03:03:01 84° SE 03:06:21 10° ENE visible
21 Sep - 04:37:22 10° WNW 04:40:03 22° NNW 04:42:45 10° NE visible
21 Sep - 06:15:31 10° NW 06:17:39 16° N 06:19:47 10° NE visible
21 Sep - 07:52:09 10° NW 07:55:09 30° NNE 07:58:08 10° E daylight
21 Sep - 09:28:46 10° WNW 09:31:57 43° SW 09:35:07 10° SSE daylight
22 Sep - 02:10:58 10° SW 02:14:10 47° SE 02:17:23 10° ENE night (unlit)
22 Sep - 03:48:02 10° W 03:51:00 29° NNW 03:53:58 10° NE visible
22 Sep - 05:26:23 10° NW 05:28:30 16° N 05:30:37 10° NE visible
22 Sep - 07:03:21 10° NW 07:06:05 23° NNE 07:08:49 10° ENE daylight
22 Sep - 08:39:46 10° WNW 08:43:06 78° SW 08:46:25 10° SE daylight
23 Sep - 01:22:30 10° SSW 01:25:21 27° SE 01:28:13 10° ENE night (unlit)
23 Sep - 02:58:46 10° W 03:01:57 41° NNW 03:05:08 10° NE visible
23 Sep - 04:37:03 10° NW 04:39:19 17° N 04:41:34 10° NE visible
23 Sep - 06:14:29 10° NW 06:16:57 19° NNE 06:19:24 10° ENE visible
23 Sep - 07:50:51 10° NW 07:54:09 62° NNE 07:57:27 10° ESE daylight
23 Sep - 09:28:23 10° W 09:30:32 16° SW 09:32:41 10° S daylight
24 Sep - 00:34:30 10° S 00:36:34 16° SE 00:38:38 10° E night (unlit)
24 Sep - 02:09:37 10° WSW 02:12:55 65° NNW 02:16:14 10° NE night (unlit)
24 Sep - 03:47:37 10° WNW 03:50:07 19° NNW 03:52:36 10° NE visible
24 Sep - 05:25:30 10° NW 05:27:44 17° N 05:29:59 10° NE visible
24 Sep - 07:01:57 10° NW 07:05:07 39° NNE 07:08:16 10° E daylight
24 Sep - 08:38:50 10° WNW 08:41:44 28° SW 08:44:36 10° SSE daylight
25 Sep - 01:20:36 10° SW 01:23:55 74° SE 01:27:15 10° ENE night (unlit)
25 Sep - 02:58:09 10° WNW 03:00:54 23° NNW 03:03:40 10° NE night (unlit)
25 Sep - 04:36:21 10° NW 04:38:28 16° N 04:40:36 10° NE visible
25 Sep - 06:13:02 10° NW 06:15:59 28° NNE 06:18:55 10° E visible
25 Sep - 07:49:35 10° WNW 07:52:49 49° SW 07:56:02 10° SE daylight
26 Sep - 00:31:47 10° SSW 00:34:56 41° SE 00:38:06 10° ENE night (unlit)
26 Sep - 02:08:41 10° W 02:11:42 31° NNW 02:14:43 10° NE night (unlit)
26 Sep - 03:47:01 10° NW 03:49:10 16° N 03:51:19 10° NE visible
26 Sep - 05:24:05 10° NW 05:26:46 22° NNE 05:29:25 10° ENE visible
26 Sep - 07:00:28 10° NW 07:03:48 88° SW 07:07:08 10° SE daylight
26 Sep - 08:39:23 10° WSW 08:40:00 10° SW 08:40:37 10° SW daylight
26 Sep - 23:43:16 10° S 23:45:59 23° SE 23:48:43 10° E night (unlit)
27 Sep - 01:19:18 10° WSW 01:22:31 45° NNW 01:25:44 10° NE night (unlit)
27 Sep - 02:57:32 10° NW 02:59:50 17° N 03:02:08 10° NE night (unlit)
27 Sep - 04:35:03 10° NW 04:37:28 18° NNE 04:39:52 10° ENE visible
27 Sep - 06:11:25 10° NW 06:14:42 55° NNE 06:17:58 10° ESE visible
27 Sep - 07:48:45 10° W 07:51:07 18° SW 07:53:30 10° S daylight
27 Sep - 22:55:18 10° SSE 22:57:03 14° SE 22:58:48 10° E night (unlit)
28 Sep - 00:30:02 10° WSW 00:33:21 73° NNW 00:36:41 10° NE night (unlit)
28 Sep - 02:07:56 10° WNW 02:10:29 20° NNW 02:13:02 10° NE night (unlit)
28 Sep - 03:45:54 10° NW 03:48:06 16° N 03:50:18 10° NE visible
28 Sep - 05:22:22 10° NW 05:25:30 36° NNE 05:28:36 10° E visible
28 Sep - 06:59:09 10° WNW 07:02:09 32° SW 07:05:08 10° SSE daylight
28 Sep - 23:40:55 10° SW 23:44:12 65° SE 23:47:31 10° ENE night (unlit)
29 Sep - 01:18:19 10° WNW 01:21:08 25° NNW 01:23:57 10° NE night (unlit)
29 Sep - 02:56:34 10° NW 02:58:41 16° N 03:00:47 10° NE night (unlit)
29 Sep - 04:33:19 10° NW 04:36:12 26° NNE 04:39:04 10° E visible
29 Sep - 06:09:48 10° WNW 06:13:05 57° SW 06:16:20 10° SE visible
29 Sep - 22:52:01 10° SSW 22:55:06 36° SE 22:58:11 10° ENE night (unlit)
